Change the Weather History Date:

Saturday, September 7, 2013

  Actual Average Record
Temperature  
Mean Temperature 62 °F -  
Max Temperature 78 °F 70 °F 93 °F (2002)
Min Temperature 46 °F 48 °F 39 °F (2005)
Degree Days  
Heating Degree Days 3    
Growing Degree Days 12 (Base 50)    
Moisture  
Dew Point 55 °F    
Average Humidity 75    
Maximum Humidity 100    
Minimum Humidity 39    
Precipitation  
Precipitation 0.00 in - - ()
Sea Level Pressure  
Sea Level Pressure 30.04 in    
Wind  
Wind Speed 2 mph (North)    
Max Wind Speed 8 mph    
Max Gust Speed -    
Visibility 8 miles    
Events Fog    
Averages and records for this station are not official NWS values.
T = Trace of Precipitation, MM = Missing Value Source: NWS Daily Summary

Daily Weather History Graph

Daily Weather History Graph

Search for Another Location

Airport or City:

Trip Planner

Search our weather history database for the weather conditions in past years. The results will help you decide how hot, cold, wet, or windy it might be!

Date:

Astronomy

Sep. 07, 2013 Rise Set
Actual Time 6:36 AM CDT 7:38 PM CDT
Civil Twilight 6:04 AM CDT 8:10 PM CDT
Nautical Twilight 5:25 AM CDT 8:48 PM CDT
Astronomical Twilight 4:45 AM CDT 9:28 PM CDT
Moon 9:06 AM CDT (9/7) 8:20 PM CDT (9/7)
Length of Visible Light 14h 05m
Length of Day
13h 02m
Waxing Crescent, 5% of the Moon is Illuminated
Sep 7
Waxing Crescent
Sep 12
First Quarter
Sep 19
Full
Sep 26
Last Quarter
Oct 4
New

Hourly Weather History & Observations

Time (CDT) Temp. Dew Point Humidity Pressure Visibility Wind Dir Wind Speed Gust Speed Precip Events Conditions
12:10 AM 66.2 °F 62.6 °F 88% 29.90 in 3.0 mi Calm Calm - N/A   Clear
12:30 AM 64.4 °F 62.6 °F 94% 29.90 in 4.0 mi Calm Calm - N/A   Clear
12:50 AM 62.6 °F 60.8 °F 94% 29.90 in 0.8 mi Calm Calm - N/A   Mostly Cloudy
1:10 AM 60.8 °F 59.0 °F 94% 29.90 in 1.8 mi Calm Calm - N/A   Mostly Cloudy
1:30 AM 60.8 °F 57.2 °F 88% 29.91 in 0.8 mi Calm Calm - N/A   Mist
1:50 AM 60.8 °F 57.2 °F 88% 29.91 in 1.5 mi Calm Calm - N/A   Mostly Cloudy
2:10 AM 59.0 °F 57.2 °F 94% 29.91 in 3.0 mi Calm Calm - N/A   Clear
2:30 AM 59.0 °F 57.2 °F 94% 29.92 in 0.2 mi Calm Calm - N/A Fog Fog
2:50 AM 59.0 °F 57.2 °F 94% 29.92 in 1.5 mi Calm Calm - N/A   Clear
3:10 AM 59.0 °F 57.2 °F 94% 29.93 in 3.0 mi Calm Calm - N/A   Clear
3:30 AM 57.2 °F 55.4 °F 94% 29.93 in 1.8 mi Calm Calm - N/A   Clear
3:50 AM 57.2 °F 55.4 °F 94% 29.93 in 3.0 mi Calm Calm - N/A   Clear
4:10 AM 57.2 °F 55.4 °F 94% 29.94 in 0.8 mi Calm Calm - N/A   Mostly Cloudy
4:30 AM 57.2 °F 55.4 °F 94% 29.94 in 2.5 mi Calm Calm - N/A   Scattered Clouds
4:50 AM 55.4 °F 55.4 °F 100% 29.94 in 3.0 mi Calm Calm - N/A   Scattered Clouds
5:10 AM 55.4 °F 53.6 °F 94% 29.94 in 7.0 mi Calm Calm - N/A   Clear
5:30 AM 55.4 °F 53.6 °F 94% 29.95 in 7.0 mi Calm Calm - N/A   Clear
5:50 AM 55.4 °F 53.6 °F 94% 29.96 in 3.0 mi Calm Calm - N/A   Clear
6:10 AM 55.4 °F 53.6 °F 94% 29.96 in 7.0 mi Calm Calm - N/A   Clear
6:30 AM 55.4 °F 53.6 °F 94% 29.96 in 4.0 mi Calm Calm - N/A   Clear
6:50 AM 53.6 °F 53.6 °F 100% 29.97 in 7.0 mi Calm Calm - N/A   Clear
7:10 AM 53.6 °F 53.6 °F 100% 29.97 in 5.0 mi Calm Calm - N/A   Clear
7:30 AM 55.4 °F 53.6 °F 94% 29.97 in 7.0 mi Calm Calm - N/A   Clear
7:50 AM 60.8 °F 59.0 °F 94% 29.98 in 10.0 mi North 3.5 mph - N/A   Clear
8:10 AM 62.6 °F 62.6 °F 100% 29.99 in 10.0 mi NNW 3.5 mph - N/A   Clear
8:30 AM 62.6 °F 62.6 °F 100% 29.99 in 10.0 mi North 3.5 mph - N/A   Scattered Clouds
8:50 AM 64.4 °F 62.6 °F 94% 29.99 in 10.0 mi North 3.5 mph - N/A   Clear
9:10 AM 68.0 °F 64.4 °F 88% 30.01 in 10.0 mi North 3.5 mph - N/A   Clear
9:30 AM 69.8 °F 66.2 °F 88% 30.01 in 10.0 mi North 4.6 mph - N/A   Clear
9:50 AM 71.6 °F 66.2 °F 83% 30.02 in 10.0 mi North 4.6 mph - N/A   Clear
10:10 AM 71.6 °F 66.2 °F 83% 30.04 in 10.0 mi North 5.8 mph - N/A   Clear
10:30 AM 73.4 °F 66.2 °F 78% 30.04 in 10.0 mi North 6.9 mph - N/A   Clear
10:50 AM 73.4 °F 66.2 °F 78% 30.05 in 10.0 mi North 6.9 mph - N/A   Clear
11:10 AM 73.4 °F 64.4 °F 73% 30.06 in 10.0 mi North 6.9 mph - N/A   Clear
11:30 AM 75.2 °F 64.4 °F 69% 30.06 in 10.0 mi NNE 8.1 mph - N/A   Clear
11:50 AM 75.2 °F 62.6 °F 65% 30.06 in 10.0 mi North 8.1 mph - N/A   Clear
12:10 PM 73.4 °F 60.8 °F 65% 30.06 in 10.0 mi North 4.6 mph - N/A   Clear
12:30 PM 75.2 °F 60.8 °F 61% 30.07 in 10.0 mi North 5.8 mph - N/A   Clear
12:50 PM 77.0 °F 60.8 °F 57% 30.07 in 10.0 mi NNE 5.8 mph - N/A   Clear
1:10 PM 77.0 °F 59.0 °F 54% 30.07 in 10.0 mi NNE 4.6 mph - N/A   Scattered Clouds
1:30 PM 78.8 °F 57.2 °F 47% 30.07 in 10.0 mi North 4.6 mph - N/A   Clear
1:50 PM 78.8 °F 57.2 °F 47% 30.07 in 10.0 mi NE 5.8 mph - N/A   Clear
2:10 PM 78.8 °F 55.4 °F 44% 30.07 in 10.0 mi North 4.6 mph - N/A   Scattered Clouds
2:30 PM 78.8 °F 57.2 °F 47% 30.08 in 10.0 mi North 5.8 mph - N/A   Scattered Clouds
2:50 PM 78.8 °F 55.4 °F 44% 30.08 in 10.0 mi NNE 8.1 mph - N/A   Scattered Clouds
3:10 PM 78.8 °F 53.6 °F 42% 30.08 in 10.0 mi North 4.6 mph - N/A   Scattered Clouds
3:30 PM 78.8 °F 53.6 °F 42% 30.09 in 10.0 mi NNE 4.6 mph - N/A   Clear
3:50 PM 78.8 °F 53.6 °F 42% 30.09 in 10.0 mi North 8.1 mph - N/A   Clear
4:10 PM 77.0 °F 53.6 °F 44% 30.09 in 10.0 mi North 4.6 mph - N/A   Clear
4:30 PM 78.8 °F 51.8 °F 39% 30.09 in 10.0 mi NNE 3.5 mph - N/A   Clear
4:50 PM 77.0 °F 51.8 °F 41% 30.09 in 10.0 mi North 5.8 mph - N/A   Clear
5:10 PM 77.0 °F 51.8 °F 41% 30.10 in 10.0 mi North 5.8 mph - N/A   Clear
5:30 PM 75.2 °F 51.8 °F 44% 30.10 in 10.0 mi Calm Calm - N/A   Clear
5:50 PM 73.4 °F 50.0 °F 44% 30.10 in 10.0 mi NNE 3.5 mph - N/A   Clear
6:10 PM 71.6 °F 50.0 °F 46% 30.11 in 10.0 mi Calm Calm - N/A   Clear
6:30 PM 71.6 °F 51.8 °F 50% 30.11 in 10.0 mi North 3.5 mph - N/A   Clear
6:50 PM 69.8 °F 50.0 °F 49% 30.12 in 10.0 mi Calm Calm - N/A   Clear
7:10 PM 66.2 °F 48.2 °F 52% 30.13 in 10.0 mi Calm Calm - N/A   Clear
7:30 PM 64.4 °F 48.2 °F 56% 30.13 in 10.0 mi North 3.5 mph - N/A   Clear
7:50 PM 62.6 °F 46.4 °F 55% 30.14 in 10.0 mi Calm Calm - N/A   Clear
8:10 PM 60.8 °F 48.2 °F 63% 30.15 in 10.0 mi Calm Calm - N/A   Clear
8:30 PM 55.4 °F 46.4 °F 72% 30.15 in 10.0 mi Calm Calm - N/A   Clear
8:50 PM 53.6 °F 46.4 °F 77% 30.15 in 10.0 mi Calm Calm - N/A   Clear
9:10 PM 51.8 °F 44.6 °F 76% 30.15 in 10.0 mi Calm Calm - N/A   Clear
9:30 PM 50.0 °F 44.6 °F 82% 30.16 in 10.0 mi Calm Calm - N/A   Clear
9:50 PM 48.2 °F 44.6 °F 87% 30.16 in 10.0 mi Calm Calm - N/A   Clear
10:10 PM 48.2 °F 44.6 °F 87% 30.16 in 10.0 mi Calm Calm - N/A   Clear
10:30 PM 48.2 °F 44.6 °F 87% 30.16 in 10.0 mi Calm Calm - N/A   Clear
10:50 PM 48.2 °F 44.6 °F 87% 30.16 in 10.0 mi Calm Calm - N/A   Clear
11:10 PM 46.4 °F 44.6 °F 93% 30.16 in 10.0 mi Calm Calm - N/A   Clear
11:30 PM 46.4 °F 42.8 °F 87% 30.16 in 10.0 mi Calm Calm - N/A   Clear
11:50 PM 46.4 °F 42.8 °F 87% 30.17 in 10.0 mi Calm Calm - N/A   Clear